Regional Weather Roundup
Issued by NWS

Home | Current Version | Previous Version | Graphics & Text | Print | Product List | Glossary On
Versions: 1 2 3 4 5 6 7 8 9 10 11 12 13 14 15 16 17 18 19 20 21 22 23 24 25 26 27 28 29 30 31 32 33 34 35 36 37 38 39 40 41 42 43 44 45 46 47 48 49 50
000
ASUS45 KTFX 280104
RWRMT
MONTANA HOURLY WEATHER ROUNDUP
NATIONAL WEATHER SERVICE GREAT FALLS MT
604 PM MST FRI FEB 27 2015

NOTE: "FAIR" INDICATES FEW OR NO CLOUDS BELOW 12000 FEET WITH NO
SIGNIFICANT WEATHER AND/OR OBSTRUCTIONS TO VISIBILITY.

* THESE STATIONS ARE NOT UNDER NWS QUALITY CONTROL. THEY DO NOT
   REPORT WEATHER SUCH AS PRECIPITATION OR FOG.

MTZ001>007-043-280200-
WEST OF THE DIVIDE
CITY           SKY/WX    TMP DP  RH WIND       PRES   REMARKS
KALISPELL      PTCLDY    28   9  45 N23G28    29.92R WCI  14
MISSOULA       CLOUDY    34  10  37 E17G23    29.86R WCI  23
BUTTE          CLOUDY    23  10  57 S16G22    29.80R WCI  10
MULLAN PASS    MOCLDY    21  12  68 VRB3      29.72S
* ANACONDA     CLOUDY    21  10  62 N20G28     N/A   WCI   6
* ESSEX        N/A       20   6  54 E7G20      N/A   WCI  11
* LINCOLN      N/A       17   6  62 NE15G24    N/A   WCI   2
* LOOKOUT PASS N/A       30  14  51 N6G11      N/A   WCI  24
* POLSON       N/A       31   8  38 N2G7       N/A
* RONAN APT    MOCLDY    36  16  44 NE9        N/A   WCI  29
* SEELEY LAKE  N/A       30   9  41 S2G7       N/A
* THOMP F APT  PTCLDY    27  15  61 SE2G7      N/A
$$

MTZ008-052>055-280200-
SOUTHWEST MONTANA
CITY           SKY/WX    TMP DP  RH WIND       PRES   REMARKS
BOZEMAN        CLOUDY    27  12  53 SW6       29.87R WCI  20
DILLON         CLOUDY    25   9  50 NE22      29.76R WCI  10
* W YELLOWSTON MOCLDY    24   9  53 N6G12      N/A   WCI  17
* THREE FORKS  CLOUDY    27  12  53 N11G17     N/A   WCI  17
* BOULDER HILL N/A       13   5  70 N16G21     N/A   WCI  -3
* MONIDA PASS  N/A       25  11  55 NE12       N/A   WCI  14
* RAYNOLDS PAS N/A       14  13  96 N15        N/A   WCI  -1
* WHITEHALL    N/A       26  10  51 NE8G17     N/A   WCI  18
* WISE RIVER   N/A       26   8  46 E17G30     N/A   WCI  13
$$

MTZ009>010-012-014-046-048-049-054-280200-
EAST SLOPES AND CENTRAL MONTANA
CITY           SKY/WX    TMP DP  RH WIND       PRES   REMARKS
CUT BANK       LGT SNOW  16  10  77 N13       30.04S WCI   2
GREAT FALLS    CLOUDY    18  12  77 N9        30.04R WCI   7
HELENA         CLOUDY    21  10  62 N12G21    29.99R WCI   9
* DEARBORN     N/A       20  13  74 VRB4       N/A
* EAST GLACIER N/A       12   5  73 NE15       N/A   WCI  -4
* MONARCH      N/A       10   4  76 W6         N/A
* PENDROY      N/A       14  11  88 N11G19     N/A   WCI   1
* ROGERS PASS  N/A       10   7  88 S3G9       N/A
* SWEET GRASS  N/A       15  13  92 N13        N/A   WCI   1
$$

MTZ011-013-016-021-035-040-045-047-050-051-280200-
NORTH CENTRAL MONTANA
CITY           SKY/WX    TMP DP  RH WIND       PRES   REMARKS
HAVRE          MOCLDY    18   9  68 NW16      30.09R WCI   3
LEWISTOWN      LGT SNOW  16  10  77 NW8       29.99R WCI   5
* N BAR RANCH  CLOUDY    14   7  73 NW22      29.93R WCI  -4
* CHESTER      N/A       16   6  64 NE10G16    N/A   WCI   4
* DENTON       N/A       18  10  71 NW9        N/A   WCI   7
* GEYSER       N/A       14   7  73 W17G22     N/A   WCI  -2
* JUDITH GAP   N/A       11   8  88 N26G31     N/A   WCI -10
* LOMA         N/A       17  11  77 N16        N/A   WCI   2
$$

MTZ017>020-022>027-061-062-280200-
NORTHEAST MONTANA
CITY           SKY/WX    TMP DP  RH WIND       PRES   REMARKS
GLASGOW        CLOUDY    16   5  62 NW7       30.04R WCI   6
GLENDIVE       MOCLDY    21   7  55 W6        30.01S WCI  13
JORDAN         MOCLDY    18   5  57 NW10      30.03R WCI   6
SIDNEY         CLOUDY    25   9  50 SE6       30.06S WCI  18
WOLF POINT     CLOUDY    19   7  59 NW7       30.04R WCI  10
* BEAVER HILL  N/A       20   7  57 SE10       N/A   WCI   9
* CIRCLE       N/A       23  12  63 NW5G11     N/A   WCI  16
* LINDSAY DVD  N/A       17   4  56 W2         N/A
* NAVAJO       N/A       17   2  51 SW2        N/A
* SACO         N/A       18   3  52 N/A        N/A
$$

MTZ028>042-056>058-280200-
SOUTHCENTRAL AND SOUTHEAST MONTANA
CITY           SKY/WX    TMP DP  RH WIND       PRES   REMARKS
BAKER          CLOUDY    16   7  67 S6        29.99S WCI   7
BILLINGS       PTCLDY    25   7  46 NE14      29.95R WCI  13
LIVINGSTON     MOCLDY    25  12  58 E10       29.87R WCI  15
MILES CITY     PTCLDY    21   9  60 NW5       30.00R WCI  14
* LAUREL APT   MOCLDY    28   9  45 N/A        N/A
* ROUNDUP APT  MOCLDY    19   3  49 NE6        N/A   WCI  11
* ALZADA       N/A       17   7  65 E4         N/A
* HYSHAM       N/A       19   4  52 NE1        N/A
* LAME DEER    N/A       16  11  81 N6         N/A   WCI   7
* REED POINT   N/A       26  11  53 N4G9       N/A
$$

REGIONAL REPORTS...DAKOTAS
CITY           SKY/WX    TMP DP  RH WIND       PRES   REMARKS
WILLISTON      MOCLDY    23   5  46 SE5       30.05R WCI  16
DICKINSON      CLOUDY    19   7  59 SE10      30.02R WCI   8
BEACH          CLEAR     16   7  67 SW5       30.01S WCI   8
CROSBY         PTCLDY     9   1  70 E3        30.09R
WATFORD CITY   CLEAR     19   7  59 SE10      30.03S WCI   8
BISMARCK       CLEAR     12   3  67 S9        30.20S
GRAND FORKS    PTCLDY     7  -2  66 S9        30.35S WCI  -6
FARGO          PTCLDY    12   0  58 S9        30.39S
BUFFALO SD     PTCLDY    19  10  68 S8        29.93R WCI   9
RAPID CITY     MOCLDY    19  10  68 S15       30.01S WCI   5
$$

REGIONAL REPORTS...WYOMING/IDAHO/WASHINGTON
CITY           SKY/WX    TMP DP  RH WIND       PRES   REMARKS
GILLETTE       PTCLDY    19   9  65 S5        29.88R WCI  12
SHERIDAN       PTCLDY    10   1  67 W7        29.92R WCI  -1
CODY           PTCLDY    21  10  62 N5        29.85R WCI  14
YELLOWSTONE LA PTCLDY    18  10  71 CALM      29.71R
SALMON         CLOUDY    37  18  46 CALM      29.71S
MULLAN PASS    MOCLDY    21  12  68 VRB3      29.72S
SAND POINT     MOCLDY    39  19  45 N16       29.86R WCI  30
SPOKANE        CLOUDY    45  19  35 NE16      29.77R

$$




USA.gov is the U.S. government's official web portal to all federal, state and local government web resources and services.